BRN1341 TJSJ-TIST

Flight info

Callsign BRN1341
Flight time 0h 18m
Altitude 11000
Route SJU RTE2 STT
Aircraft AT46/M-SDFGIRY/S

Departure

Time 2026-04-21 21:43
Airport Luis Munoz Marin International Airport (TJSJ)

Arrival

Time 2026-04-21 22:02
Airport Cyril E. King Airport (TIST)
Time Latitude Longitude Altitude Speed Heading
2026-04-21 21:17 18.43996 -66.00253 -46 ft 0 kts 194°
2026-04-21 21:34 18.43995 -66.00254 -30 ft 0 kts 210°
2026-04-21 21:34 18.43994 -66.00256 -30 ft 0 kts 253°
2026-04-21 21:35 18.43995 -66.00259 -30 ft 0 kts 303°
2026-04-21 21:35 18.43997 -66.00260 -30 ft 0 kts 332°
2026-04-21 21:35 18.44000 -66.00260 -30 ft 1 kts 351°
2026-04-21 21:35 18.44007 -66.00259 -30 ft 0 kts 17°
2026-04-21 21:36 18.44017 -66.00246 -36 ft 2 kts 60°
2026-04-21 21:36 18.44018 -66.00244 -35 ft 0 kts 62°
2026-04-21 21:36 18.44026 -66.00227 -30 ft 7 kts 65°
2026-04-21 21:37 18.44038 -66.00200 -39 ft 1 kts 62°
2026-04-21 21:37 18.44060 -66.00176 -33 ft 5 kts 34°
2026-04-21 21:37 18.44075 -66.00168 -30 ft 1 kts 26°
2026-04-21 21:37 18.44121 -66.00172 -30 ft 13 kts 340°
2026-04-21 21:38 18.44187 -66.00228 -36 ft 14 kts 281°
2026-04-21 21:38 18.44154 -66.00329 -32 ft 15 kts 247°
2026-04-21 21:38 18.44125 -66.00418 -30 ft 12 kts 267°
2026-04-21 21:38 18.44140 -66.00500 -41 ft 14 kts 275°
2026-04-21 21:39 18.44111 -66.00608 -38 ft 15 kts 248°
2026-04-21 21:39 18.44066 -66.00717 -31 ft 16 kts 247°
2026-04-21 21:39 18.44023 -66.00825 -31 ft 15 kts 247°
2026-04-21 21:39 18.43979 -66.00934 -32 ft 17 kts 247°
2026-04-21 21:40 18.43936 -66.01039 -37 ft 17 kts 246°
2026-04-21 21:40 18.43891 -66.01150 -46 ft 14 kts 247°
2026-04-21 21:40 18.43853 -66.01245 -44 ft 15 kts 247°
2026-04-21 21:40 18.43815 -66.01337 -55 ft 13 kts 246°
2026-04-21 21:41 18.43777 -66.01430 -42 ft 12 kts 247°
2026-04-21 21:41 18.43753 -66.01505 -43 ft 8 kts 271°
2026-04-21 21:41 18.43759 -66.01518 -43 ft 2 kts 305°
2026-04-21 21:41 18.43774 -66.01538 -53 ft 7 kts 313°
2026-04-21 21:42 18.43822 -66.01571 -43 ft 8 kts 354°
2026-04-21 21:42 18.43847 -66.01555 -50 ft 1 kts 63°
2026-04-21 21:42 18.43847 -66.01553 -49 ft 0 kts 64°
2026-04-21 21:43 18.43862 -66.01522 -48 ft 26 kts 66°
2026-04-21 21:43 18.44007 -66.01164 -46 ft 84 kts 67°
2026-04-21 21:43 18.44316 -66.00452 219 ft 118 kts 63°
2026-04-21 21:43 18.44795 -65.99786 838 ft 116 kts 50°
2026-04-21 21:44 18.45318 -65.99101 1240 ft 126 kts 52°
2026-04-21 21:44 18.45863 -65.98336 1645 ft 144 kts 54°
2026-04-21 21:44 18.46360 -65.97381 2071 ft 151 kts 77°
2026-04-21 21:44 18.46363 -65.96244 2594 ft 162 kts 95°
2026-04-21 21:45 18.46201 -65.95045 3083 ft 167 kts 100°
2026-04-21 21:45 18.46023 -65.93851 3676 ft 166 kts 98°
2026-04-21 21:45 18.45879 -65.92630 4078 ft 167 kts 95°
2026-04-21 21:45 18.45781 -65.91384 4344 ft 174 kts 90°
2026-04-21 21:46 18.45760 -65.90100 4759 ft 174 kts 88°
2026-04-21 21:46 18.45740 -65.88837 5127 ft 174 kts 88°
2026-04-21 21:46 18.45745 -65.87529 5453 ft 179 kts 87°
2026-04-21 21:46 18.45788 -65.86254 5861 ft 177 kts 84°
2026-04-21 21:47 18.45854 -65.84952 6183 ft 181 kts 85°
2026-04-21 21:47 18.45882 -65.84058 6422 ft 181 kts 86°
2026-04-21 21:47 18.45908 -65.82287 6845 ft 183 kts 86°
2026-04-21 21:47 18.45943 -65.80949 7129 ft 186 kts 88°
2026-04-21 21:48 18.45944 -65.79600 7513 ft 182 kts 89°
2026-04-21 21:48 18.45777 -65.78243 7773 ft 188 kts 98°
2026-04-21 21:48 18.45603 -65.77348 8036 ft 187 kts 99°
2026-04-21 21:48 18.45160 -65.75568 8443 ft 189 kts 104°
2026-04-21 21:49 18.44933 -65.74692 8680 ft 188 kts 103°
2026-04-21 21:49 18.44586 -65.73353 8996 ft 187 kts 102°
2026-04-21 21:49 18.44276 -65.72012 9301 ft 190 kts 99°
2026-04-21 21:49 18.43990 -65.70645 9610 ft 191 kts 99°
2026-04-21 21:50 18.43726 -65.69275 9938 ft 191 kts 98°
2026-04-21 21:50 18.43466 -65.67903 10197 ft 194 kts 97°
2026-04-21 21:50 18.43203 -65.66496 10419 ft 198 kts 99°
2026-04-21 21:50 18.42897 -65.65089 10712 ft 198 kts 101°
2026-04-21 21:51 18.42570 -65.63659 10873 ft 206 kts 101°
2026-04-21 21:51 18.42229 -65.62151 10948 ft 217 kts 101°
2026-04-21 21:51 18.41877 -65.60567 10987 ft 227 kts 101°
2026-04-21 21:51 18.41518 -65.58906 11002 ft 236 kts 101°
2026-04-21 21:52 18.41155 -65.57194 11009 ft 243 kts 101°
2026-04-21 21:52 18.40789 -65.55436 11015 ft 249 kts 101°
2026-04-21 21:52 18.40413 -65.53642 10970 ft 255 kts 101°
2026-04-21 21:52 18.40016 -65.51760 10617 ft 271 kts 101°
2026-04-21 21:53 18.39596 -65.49772 10243 ft 283 kts 101°
2026-04-21 21:53 18.39157 -65.47710 9843 ft 291 kts 101°
2026-04-21 21:53 18.38712 -65.45645 9400 ft 288 kts 101°
2026-04-21 21:53 18.38275 -65.43599 8968 ft 285 kts 101°
2026-04-21 21:54 18.37847 -65.41573 8553 ft 282 kts 101°
2026-04-21 21:54 18.37429 -65.39561 8141 ft 280 kts 101°
2026-04-21 21:54 18.37010 -65.37563 7741 ft 278 kts 101°
2026-04-21 21:54 18.36587 -65.35579 7327 ft 277 kts 101°
2026-04-21 21:55 18.36163 -65.33606 6937 ft 276 kts 101°
2026-04-21 21:55 18.35745 -65.31644 6551 ft 274 kts 101°
2026-04-21 21:55 18.35329 -65.29682 6151 ft 274 kts 102°
2026-04-21 21:55 18.34916 -65.27736 5740 ft 273 kts 101°
2026-04-21 21:56 18.34501 -65.25789 5332 ft 272 kts 101°
2026-04-21 21:56 18.34088 -65.23858 4929 ft 268 kts 102°
2026-04-21 21:56 18.33689 -65.22007 4517 ft 256 kts 102°
2026-04-21 21:56 18.33307 -65.20236 4146 ft 239 kts 102°
2026-04-21 21:57 18.32949 -65.18578 3782 ft 232 kts 101°
2026-04-21 21:57 18.32593 -65.16947 3398 ft 225 kts 98°
2026-04-21 21:57 18.32644 -65.15362 3101 ft 212 kts 81°
2026-04-21 21:57 18.32859 -65.13854 2812 ft 199 kts 81°
2026-04-21 21:58 18.33062 -65.12475 2574 ft 177 kts 80°
2026-04-21 21:58 18.33164 -65.11248 2350 ft 164 kts 86°
2026-04-21 21:58 18.33184 -65.10061 2152 ft 164 kts 88°
2026-04-21 21:58 18.33220 -65.08875 1926 ft 160 kts 85°
2026-04-21 21:59 18.33282 -65.07743 1738 ft 149 kts 85°
2026-04-21 21:59 18.33331 -65.06713 1543 ft 130 kts 86°
2026-04-21 21:59 18.33373 -65.05809 1383 ft 123 kts 86°
2026-04-21 21:59 18.33413 -65.04925 1183 ft 118 kts 86°
2026-04-21 22:00 18.33448 -65.04044 1075 ft 120 kts 84°
2026-04-21 22:00 18.33487 -65.03184 882 ft 117 kts 86°
2026-04-21 22:00 18.33527 -65.02311 757 ft 122 kts 86°
2026-04-21 22:00 18.33565 -65.01437 642 ft 118 kts 86°
2026-04-21 22:01 18.33589 -65.00591 459 ft 117 kts 86°
2026-04-21 22:01 18.33638 -64.99748 361 ft 114 kts 86°
2026-04-21 22:01 18.33670 -64.98907 198 ft 116 kts 84°
2026-04-21 22:01 18.33700 -64.98081 28 ft 106 kts 86°
2026-04-21 22:02 18.33731 -64.97427 25 ft 54 kts 86°
2026-04-21 22:02 18.33734 -64.97168 23 ft 13 kts 89°
2026-04-21 22:02 18.33690 -64.97118 23 ft 10 kts 187°
2026-04-21 22:02 18.33626 -64.97148 24 ft 10 kts 189°
2026-04-21 22:03 18.33578 -64.97157 25 ft 5 kts 190°
2026-04-21 22:03 18.33569 -64.97159 23 ft 0 kts 189°